Weather History for KJZI - September, 2013

Change the Weather History Date:

Tuesday, September 24, 2013

  Actual Average (KCHS) Record (KCHS)
Temperature  
Mean Temperature 73 °F 74 °F  
Max Temperature 80 °F 83 °F 95 °F (1980)
Min Temperature 66 °F 65 °F 44 °F (1967)
Degree Days  
Heating Degree Days 0 0  
Month to date heating degree days 0  
Since 1 July heating degree days 0  
Cooling Degree Days 8 9  
Month to date cooling degree days 285  
Year to date cooling degree days 2090  
Growing Degree Days 23 (Base 50)    
Moisture  
Dew Point 62 °F    
Average Humidity 69    
Maximum Humidity 83    
Minimum Humidity 54    
Precipitation  
Precipitation 0.00 in 0.17 in 3.12 in (1947)
Month to date precipitation 5.07  
Year to date precipitation 40.71  
Sea Level Pressure  
Sea Level Pressure 30.00 in    
Wind  
Wind Speed 6 mph (ENE)    
Max Wind Speed 16 mph    
Max Gust Speed 23 mph    
Visibility 10 miles    
Events      
T = Trace of Precipitation, MM = Missing Value Source: NWS Daily Summary

Daily Weather History Graph

Daily Weather History Graph

Search for Another Location

Airport or City:

Trip Planner

Search our weather history database for the weather conditions in past years. The results will help you decide how hot, cold, wet, or windy it might be!

Date:

Astronomy

Sep. 24, 2013 Rise Set
Actual Time 7:09 AM EDT 7:13 PM EDT
Civil Twilight 6:45 AM EDT 7:38 PM EDT
Nautical Twilight 6:16 AM EDT 8:06 PM EDT
Astronomical Twilight 5:47 AM EDT 8:35 PM EDT
Moon 10:46 PM EDT (9/24) 12:06 PM EDT (9/24)
Length of Visible Light 12h 53m
Length of Day
12h 04m
Waning Gibbous, 73% of the Moon is Illuminated
Sep 24
Waning Gibbous
Sep 26
Last Quarter
Oct 4
New
Oct 11
First Quarter
Oct 18
Full

Hourly Weather History & Observations

Time (EDT) Temp. Heat Index Dew Point Humidity Pressure Visibility Wind Dir Wind Speed Gust Speed Precip Events Conditions
12:15 AM 66.2 °F - 60.8 °F 83% 30.04 in 10.0 mi Calm Calm - 0.00 in   Clear
12:35 AM 68.0 °F - 60.8 °F 78% 30.04 in 10.0 mi Calm Calm - 0.00 in   Clear
12:55 AM 69.8 °F - 60.8 °F 73% 30.04 in 10.0 mi East 4.6 mph - 0.00 in   Clear
1:15 AM 71.6 °F - 60.8 °F 69% 30.03 in 10.0 mi East 6.9 mph - 0.00 in   Clear
1:35 AM 71.6 °F - 60.8 °F 69% 30.03 in 10.0 mi East 6.9 mph - 0.00 in   Partly Cloudy
1:55 AM 69.8 °F - 60.8 °F 73% 30.03 in 10.0 mi Calm Calm - 0.00 in   Partly Cloudy
2:15 AM 69.8 °F - 60.8 °F 73% 30.03 in 10.0 mi Calm Calm - 0.00 in   Mostly Cloudy
2:35 AM 69.8 °F - 60.8 °F 73% 30.03 in 10.0 mi Calm Calm - 0.00 in   Mostly Cloudy
2:55 AM 69.8 °F - 60.8 °F 73% 30.03 in 10.0 mi Calm Calm - 0.00 in   Scattered Clouds
3:15 AM 69.8 °F - 62.6 °F 78% 30.03 in 10.0 mi Calm Calm - 0.00 in   Mostly Cloudy
3:35 AM 69.8 °F - 62.6 °F 78% 30.02 in 10.0 mi Calm Calm - 0.00 in   Overcast
3:55 AM 71.6 °F - 62.6 °F 73% 30.02 in 10.0 mi Calm Calm - 0.00 in   Overcast
4:15 AM 69.8 °F - 62.6 °F 78% 30.01 in 10.0 mi Calm Calm - 0.00 in   Mostly Cloudy
4:35 AM 69.8 °F - 62.6 °F 78% 30.01 in 10.0 mi Calm Calm - 0.00 in   Partly Cloudy
4:55 AM 69.8 °F - 62.6 °F 78% 30.01 in 10.0 mi Calm Calm - 0.00 in   Partly Cloudy
5:15 AM 69.8 °F - 62.6 °F 78% 30.02 in 10.0 mi NNE 4.6 mph - 0.00 in   Mostly Cloudy
5:35 AM 69.8 °F - 62.6 °F 78% 30.02 in 10.0 mi Calm Calm - 0.00 in   Mostly Cloudy
5:55 AM 69.8 °F - 62.6 °F 78% 30.02 in 10.0 mi Calm Calm - 0.00 in   Mostly Cloudy
6:15 AM 69.8 °F - 62.6 °F 78% 30.03 in 10.0 mi North 3.5 mph - 0.00 in   Overcast
6:35 AM 69.8 °F - 60.8 °F 73% 30.03 in 10.0 mi NNE 3.5 mph - 0.00 in   Overcast
6:55 AM 69.8 °F - 60.8 °F 73% 30.04 in 10.0 mi Calm Calm - 0.00 in   Overcast
7:15 AM 69.8 °F - 60.8 °F 73% 30.04 in 10.0 mi NNE 4.6 mph - 0.00 in   Overcast
7:35 AM 69.8 °F - 60.8 °F 73% 30.04 in 10.0 mi Calm Calm - 0.00 in   Overcast
7:55 AM 69.8 °F - 60.8 °F 73% 30.04 in 10.0 mi NNE 3.5 mph - 0.00 in   Overcast
8:15 AM 71.6 °F - 60.8 °F 69% 30.04 in 10.0 mi NE 5.8 mph - 0.00 in   Overcast
8:35 AM 71.6 °F - 60.8 °F 69% 30.05 in 10.0 mi NNE 5.8 mph - 0.00 in   Overcast
8:55 AM 73.4 °F - 60.8 °F 65% 30.05 in 10.0 mi NE 10.4 mph 16.1 mph 0.00 in   Overcast
9:15 AM 73.4 °F - 60.8 °F 65% 30.04 in 10.0 mi NE 11.5 mph - 0.00 in   Overcast
9:35 AM 73.4 °F - 60.8 °F 65% 30.04 in 10.0 mi NE 10.4 mph - 0.00 in   Overcast
9:55 AM 73.4 °F - 60.8 °F 65% 30.05 in 10.0 mi NE 10.4 mph 16.1 mph 0.00 in   Mostly Cloudy
10:15 AM 75.2 °F - 60.8 °F 61% 30.05 in 10.0 mi NE 10.4 mph - 0.00 in   Partly Cloudy
10:35 AM 78.8 °F - 60.8 °F 54% 30.04 in 10.0 mi ENE 11.5 mph - 0.00 in   Partly Cloudy
10:55 AM 78.8 °F - 62.6 °F 57% 30.04 in 10.0 mi ENE 12.7 mph 16.1 mph 0.00 in   Clear
11:15 AM 78.8 °F - 62.6 °F 57% 30.04 in 10.0 mi NE 12.7 mph 19.6 mph 0.00 in   Partly Cloudy
11:35 AM 78.8 °F - 64.4 °F 61% 30.03 in 9.0 mi ENE 12.7 mph 18.4 mph 0.00 in   Scattered Clouds
11:55 AM 78.8 °F - 62.6 °F 57% 30.03 in 10.0 mi ENE 15.0 mph 20.7 mph 0.00 in   Scattered Clouds
12:15 PM 80.6 °F 81.8 °F 62.6 °F 54% 30.02 in 10.0 mi East 16.1 mph - 0.00 in   Scattered Clouds
12:35 PM 80.6 °F 81.8 °F 62.6 °F 54% 30.02 in 10.0 mi ENE 12.7 mph 23.0 mph 0.00 in   Mostly Cloudy
12:55 PM 78.8 °F - 62.6 °F 57% 30.02 in 10.0 mi ENE 15.0 mph 19.6 mph 0.00 in   Mostly Cloudy
1:15 PM 78.8 °F - 62.6 °F 57% 30.01 in 10.0 mi East 15.0 mph 20.7 mph 0.00 in   Mostly Cloudy
1:35 PM 78.8 °F - 62.6 °F 57% 30.01 in 10.0 mi ENE 15.0 mph 20.7 mph 0.00 in   Mostly Cloudy
1:55 PM 78.8 °F - 62.6 °F 57% 30.00 in 10.0 mi ENE 15.0 mph 19.6 mph 0.00 in   Partly Cloudy
2:15 PM 77.0 °F - 62.6 °F 61% 30.00 in 10.0 mi ENE 11.5 mph 23.0 mph 0.00 in   Scattered Clouds
2:35 PM 77.0 °F - 62.6 °F 61% 29.99 in 10.0 mi ENE 13.8 mph 21.9 mph 0.00 in   Overcast
2:55 PM 75.2 °F - 62.6 °F 65% 29.99 in 10.0 mi ENE 12.7 mph 19.6 mph 0.00 in   Overcast
3:15 PM 77.0 °F - 62.6 °F 61% 29.98 in 10.0 mi East 15.0 mph 18.4 mph 0.00 in   Mostly Cloudy
3:35 PM 78.8 °F - 62.6 °F 57% 29.98 in 10.0 mi ENE 10.4 mph 18.4 mph 0.00 in   Scattered Clouds
3:55 PM 77.0 °F - 62.6 °F 61% 29.97 in 10.0 mi East 16.1 mph 19.6 mph 0.00 in   Scattered Clouds
4:15 PM 75.2 °F - 62.6 °F 65% 29.97 in 10.0 mi East 13.8 mph - 0.00 in   Scattered Clouds
4:35 PM 75.2 °F - 62.6 °F 65% 29.96 in 10.0 mi ENE 16.1 mph 21.9 mph 0.00 in   Clear
4:55 PM 75.2 °F - 62.6 °F 65% 29.96 in 10.0 mi ENE 13.8 mph - 0.00 in   Clear
5:15 PM 75.2 °F - 62.6 °F 65% 29.96 in 10.0 mi ENE 15.0 mph - 0.00 in   Clear
5:35 PM 75.2 °F - 62.6 °F 65% 29.95 in 10.0 mi ENE 13.8 mph 17.3 mph 0.00 in   Clear
5:55 PM 73.4 °F - 62.6 °F 69% 29.95 in 10.0 mi ENE 11.5 mph - 0.00 in   Clear
6:15 PM 73.4 °F - 62.6 °F 69% 29.95 in 10.0 mi ENE 9.2 mph - 0.00 in   Clear
6:35 PM 73.4 °F - 62.6 °F 69% 29.95 in 10.0 mi ENE 11.5 mph - 0.00 in   Clear
6:55 PM 73.4 °F - 62.6 °F 69% 29.95 in 10.0 mi NE 8.1 mph - 0.00 in   Clear
7:15 PM 73.4 °F - 62.6 °F 69% 29.94 in 10.0 mi NE 8.1 mph - 0.00 in   Clear
7:35 PM 71.6 °F - 62.6 °F 73% 29.94 in 10.0 mi ENE 9.2 mph - 0.00 in   Clear
7:55 PM 71.6 °F - 64.4 °F 78% 29.93 in 10.0 mi ENE 6.9 mph - 0.00 in   Clear
8:15 PM 71.6 °F - 64.4 °F 78% 29.93 in 10.0 mi ENE 6.9 mph - 0.00 in   Clear
8:35 PM 71.6 °F - 64.4 °F 78% 29.93 in 10.0 mi ENE 8.1 mph - 0.00 in   Clear
8:55 PM 73.4 °F - 64.4 °F 73% 29.93 in 10.0 mi ENE 9.2 mph - 0.00 in   Clear
9:15 PM 73.4 °F - 64.4 °F 73% 29.93 in 10.0 mi ENE 9.2 mph - 0.00 in   Clear
9:35 PM 73.4 °F - 64.4 °F 73% 29.93 in 10.0 mi ENE 6.9 mph - 0.00 in   Partly Cloudy
9:55 PM 73.4 °F - 64.4 °F 73% 29.93 in 10.0 mi ENE 8.1 mph - 0.00 in   Clear
10:15 PM 73.4 °F - 64.4 °F 73% 29.93 in 10.0 mi ENE 8.1 mph - 0.00 in   Partly Cloudy
10:35 PM 71.6 °F - 64.4 °F 78% 29.93 in 10.0 mi ENE 5.8 mph - 0.00 in   Scattered Clouds
10:55 PM 73.4 °F - 66.2 °F 78% 29.93 in 10.0 mi ENE 8.1 mph - 0.00 in   Mostly Cloudy
11:15 PM 73.4 °F - 66.2 °F 78% 29.92 in 10.0 mi ENE 9.2 mph - 0.00 in   Overcast
11:35 PM 73.4 °F - 66.2 °F 78% 29.91 in 10.0 mi ENE 9.2 mph - 0.00 in   Overcast
11:55 PM 73.4 °F - 66.2 °F 78% 29.91 in 10.0 mi ENE 10.4 mph - 0.00 in   Overcast